Flag for U.S.A. Weather past 2 weeks in Tyler, Texas, U.S.A.

Now
90 °F

Sunny.


Feels Like: 94 °F
Forecast: 71 / 92 °F
Wind: 6 mph from South

Location: Tyler Pounds Field

Current Time: Aug 29, 2015 at 4:52:14 PM

Latest Report: Aug 29, 2015 at 3:53 PM


Visibility: 10 mi

Pressure: 29.96 "Hg

Humidity: 48%

Dew point: 68 °F

Location of TylerLocation

Historic Weather in Tyler — Graph

°F

Tyler temperature yesterday

Maximum temperature yesterday: 92 °F (at 2:53 PM)
Minimum temperature yesterday: 69 °F (at 5:53 AM)
Average temperature yesterday: 80 °F

Past Weeks' High & Low Weather Summary

 TemperatureHumidityPressure
High97 °F (Aug 14, 2:53 PM)97% (Aug 20, 1:03 PM)30.14 "Hg (Aug 20, 1:03 PM)
Low67 °F (Aug 27, 6:53 AM)26% (Aug 14, 2:53 PM)29.72 "Hg (Aug 18, 6:53 PM)
Average81 °F65%29.97 "Hg
* Reported Aug 14 2:53 PM — Aug 29 2:53 PM, Tyler, Weather by CustomWeather, © 2015

Note: Actual official high and low records may vary slightly from our data, if they occured in-between our weather recording intervals... More about our weather records

Advertising

Tyler weather history for previous 24 hours

 ConditionsComfort  
Time TempWeatherWind HumidityBarometerVisibility
2:53 PM
Sat, Aug 29
89 °FSunny.7 mph48%29.99 "Hg10 mi
1:53 PM89 °FSunny.3 mph50%30.00 "Hg10 mi
12:53 PM87 °FSunny.8 mph53%30.02 "Hg10 mi
11:53 AM85 °FSunny.10 mph57%30.03 "Hg10 mi
10:53 AM84 °FSunny.10 mph59%30.03 "Hg10 mi
9:53 AM82 °FSunny.10 mph63%30.03 "Hg10 mi
8:53 AM80 °FSunny.12 mph64%30.02 "Hg10 mi
7:53 AM77 °FClear.10 mph74%30.01 "Hg10 mi
6:53 AM75 °FClear.6 mph79%30.00 "Hg10 mi
5:53 AM76 °FClear.8 mph74%29.98 "Hg10 mi
4:53 AM77 °FClear.9 mph69%29.97 "Hg10 mi
3:53 AM75 °FClear.7 mph71%29.96 "Hg10 mi
2:53 AM75 °FClear.6 mph69%29.97 "Hg10 mi
1:53 AM76 °FClear.7 mph64%29.97 "Hg10 mi
12:53 AM77 °FClear.9 mph62%29.98 "Hg10 mi
11:53 PM
Fri, Aug 28
76 °FClear.6 mph67%29.98 "Hg10 mi
10:53 PM79 °FClear.6 mph58%29.97 "Hg10 mi
9:53 PM80 °FClear.6 mph58%29.96 "Hg10 mi
8:53 PM81 °FClear.6 mph56%29.94 "Hg10 mi
7:53 PM82 °FSunny.5 mph56%29.93 "Hg10 mi
6:53 PM87 °FSunny.9 mph45%29.93 "Hg10 mi
5:53 PM89 °FSunny.8 mph42%29.93 "Hg10 mi
4:53 PM90 °FSunny.6 mph38%29.94 "Hg10 mi
Weather by CustomWeather, © 2015

See weather overviewHow to use our weather pages